Location: Brno
(49.2000°N, 16.6330°E)
Time: 08:08:23
(UTC+02:00)

Cosmos 332 Rocket - Visible Passes

Search period start: 29 March 2015 00:00
Search period end: 08 April 2015 01:00
Orbit: 683 x 706 km, 74.0° (Epoch: 27 March)

Date Brightness Start Highest point End Pass type
(mag) Time Alt. Az. Time Alt. Az. Time Alt. Az.
29 Mar 6.5 00:36:24 13° ENE 00:36:24 13° ENE 00:37:10 10° NE visible
29 Mar 4.8 03:15:07 41° N 03:15:07 41° N 03:18:30 10° NNE visible
29 Mar 6.0 04:53:50 11° WNW 04:55:21 12° NW 04:57:10 10° NNW visible
30 Mar 5.7 02:17:08 28° NE 02:17:08 28° NE 02:19:31 10° NNE visible
30 Mar 5.3 03:55:51 24° NW 03:55:51 24° NW 03:59:32 10° N visible
31 Mar 6.5 01:19:09 13° NE 01:19:09 13° NE 01:19:53 10° NE visible
31 Mar 5.1 02:57:52 36° N 02:57:52 36° N 03:01:03 10° NNE visible
31 Mar 6.1 04:36:35 10° NW 04:38:02 11° NW 04:39:23 10° NNW visible
01 Apr 5.7 01:59:51 27° NE 01:59:51 27° NE 02:02:06 10° NNE visible
01 Apr 5.5 03:38:34 22° NW 03:38:34 22° NW 03:42:01 10° N visible
02 Apr 6.4 01:01:49 14° NE 01:01:49 14° NE 01:02:34 10° NE visible
02 Apr 5.2 02:40:31 33° N 02:40:31 33° N 02:43:34 10° NNE visible
02 Apr 6.2 04:19:53 10° NW 04:20:43 10° NW 04:21:20 10° NNW visible
03 Apr 5.7 01:42:28 27° NNE 01:42:28 27° NNE 01:44:41 10° NNE visible
03 Apr 5.7 03:21:10 20° NW 03:21:10 20° NW 03:24:28 10° N visible
04 Apr 6.4 00:44:23 14° NE 00:44:23 14° NE 00:45:15 10° NE visible
04 Apr 5.3 02:23:06 31° NNW 02:23:06 31° NNW 02:26:05 10° NNE visible
05 Apr 5.7 01:24:59 27° NNE 01:24:59 27° NNE 01:27:15 10° NNE visible
05 Apr 5.8 03:03:42 19° NW 03:03:42 19° NW 03:06:55 10° N visible
06 Apr 6.3 00:26:52 15° NE 00:26:52 15° NE 00:27:53 10° NE visible
06 Apr 5.4 02:05:34 30° NNW 02:05:34 30° NNW 02:08:36 10° N visible
07 Apr 5.6 01:07:26 29° NNE 01:07:26 29° NNE 01:09:47 10° NNE visible
07 Apr 5.9 02:46:08 17° NW 02:46:08 17° NW 02:49:20 10° N visible
08 Apr 6.1 00:09:16 17° NE 00:09:16 17° NE 00:10:31 10° NE visible
